Regional Weather Roundup
Issued by NWS Albany, NY

Home | Current Version | Previous Version | Text Only | Print | Product List | Glossary On
Versions: 1 2 3 4 5 6 7 8 9 10 11 12 13 14 15 16 17 18 19 20 21 22 23 24 25 26 27
000
ASUS41 KALY 190510
RWRALY

NEW YORK STATE HOURLY WEATHER ROUNDUP
NATIONAL WEATHER SERVICE ALBANY NY
100 AM EDT SAT AUG 19 2017

NOTE: "FAIR" INDICATES FEW OR NO CLOUDS BELOW 12,000 FEET WITH NO
SIGNIFICANT WEATHER AND/OR NO OBSTRUCTIONS TO VISIBILITY.

NYZ032-033-038>043-046>054-057>066-NYZ062>081-082-084-190600-
EAST


CITY           SKY/WX    TMP DP  RH WIND       PRES   REMARKS
ALBANY         CLOUDY    72  65  78 W8        29.79F
GLENS FALLS    MOCLDY    72  68  87 W9        29.76F
POUGHKEEPSIE   MOCLDY    72  70  93 CALM      29.78S
NEWBURGH       CLOUDY    72  72 100 W6        29.82F
MONTGOMERY     FAIR      70  70 100 SW3       29.79F FOG
WHITE PLAINS   FAIR      73  71  93 S3        29.80F
ISLIP          FAIR      75  74  96 W8        29.79F
NEW YORK CITY  LGT RAIN  76  72  87 SW8       29.78F
CENTRAL PARK   FAIR      74  72  93 W5        29.82F
$$

NYZ005>009-017-018-044>046-055-056-190600-
CENTRAL


CITY           SKY/WX    TMP DP  RH WIND       PRES   REMARKS
FULTON         FAIR      70  63  78 SW6       29.80F
SYRACUSE       MOCLDY    70  63  78 SW7       29.80F
ROME           MOCLDY    68  67  96 SE5       29.81F
ELMIRA         FAIR      67  64  90 SW6       29.84F
BINGHAMTON     MOCLDY    67  62  84 SW3       29.87F
MONTICELLO     CLOUDY    70  69  97 W3        29.86S
$$

NYZ026>034-041>043-087-190600-
NORTH


CITY           SKY/WX    TMP DP  RH WIND       PRES   REMARKS
WATERTOWN      MOCLDY    73  67  81 SW13G21   29.76S
FORT DRUM      NOT AVBL
OGDENSBURG     FAIR      70  66  87 S8        29.73S
MASSENA        FAIR      71  66  84 S8        29.73S
SARANAC LAKE   CLOUDY    66  66 100 SW5       29.80F
PLATTSBURGH    FAIR      69  67  93 S3        29.74S
$$

NYZ001>004-010>016-019>021-085-190600-
WEST


CITY           SKY/WX    TMP DP  RH WIND       PRES   REMARKS
NIAGARA FALLS  CLOUDY    73  62  68 SW9       29.82R
BUFFALO        MOCLDY    72  61  68 W8        29.83S
DUNKIRK        CLOUDY    71  66  84 SW6       29.86R
JAMESTOWN      CLOUDY    66  62  87 SW6       29.91S
WELLSVILLE     FAIR      67  59  75 W7        29.91F
ROCHESTER      CLOUDY    72  65  78 SW7       29.82S
PENN YAN       FAIR      70  60  70 SW6       29.84S
$$

             KEY
       WCI = WIND CHILL INDEX
       VSB = VISIBILITY
       HX  = HEAT INDEX
$$




USA.gov is the U.S. government's official web portal to all federal, state and local government web resources and services.